[Date Prev][Date Next][Thread Prev][Thread Next] - [Date Index][Thread Index][Author Index]

2 Line ISS Keps 10-1



ISS 
1 25544U 98067A   04275.46341464  .00013783  00000-0  12356-3 0  8137
2 25544  51.6358 143.3685 0009776 171.8012 255.1923 15.68590730335012
----
Via the sarex mailing list at AMSAT.ORG courtesy of AMSAT-NA.
To unsubscribe, send "unsubscribe sarex" to Majordomo@amsat.org



AMSAT Top AMSAT Home